User: anonymous   Login
Location: Hickory_CSC
(35.7330°N, 81.3330°W)
Time: 14:47:31
(UTC-04:00)
Language:

Cosmos 1356 Rocket - Orbit

View from above orbital plane
View from above orbital plane
View from above satellite
View from above satellite

Ground track
Ground track

The orbit data is extracted from the following two-line orbital elements,

1 13154U 82039B   17206.21651826 +.00000174 +00000-0 +12469-4 0  9991
2 13154 081.1830 187.5228 0040581 166.1691 194.0651 14.98334712909150
Epoch (UTC): 25 July 2017 05:11:47
Eccentricity: 0.0040581
inclination: 81.1830°
perigee height: 544 km
apogee height: 600 km
right ascension of ascending node: 187.5228°
argument of perigee: 166.1691°
revolutions per day: 14.98334712
mean anomaly at epoch: 194.0651°
orbit number at epoch: 90915

The dashed part of the orbit path shows where the satellite is in the earth's shadow,  

DLR